ATLAS 5 CENTAUR DEB, 44040

Orbit data source: Space-Track

ATLAS 5 CENTAUR DEB, 44040 is space debris in HEO originally from a launch on Wed, 17 Sep 2014 UTC launched from the Air Force Eastern Test Range (AFETR). Debris objects in space refer to the collection of defunct objects orbiting the Earth. Examples of debris include non-operational satellites, rocket bodies, and fragments generated from explosions, collisions, or faulty payload assembly.

Loading next visibility...
Identifier
44040, 2014-055CA
Orbit
HEO
Country
Flag of USUS
Related business
Flag of USUnited Launch Alliance/Lockheed Martin (US)
Manufacturer
Unknown
Mission
Spacecraft
Bus & Motor
Unknown
Mass
Unknown
Launch date (UTC)
Icon of a cake. It is the launch day of the satellite!2014-09-17 (11 years ago)
Launch vehicle
Unknown
Launch site
Air Force Eastern Test Range (AFETR)
Object type
Payload
Rocket body
Debris
Shape & HBR
Unknown
Radar Cross Section
Small (<0.1 m²)

Expand to show TLE details & history
Last TLE update: 4 days ago

TLE from 4 days ago
0 ATLAS 5 CENTAUR DEB
1 44040U 14055CA  25256.78458223 -.00000057  00000-0  00000-0 0  9999
2 44040  19.8634 162.4820 4836375 132.9859 279.2247  1.88069395 46654
Epoch: 2025-09-13T18:49Z
TLE epoch observation values (Epoch: 2025-09-13T18:49:47.904Z)
Latitude
Longitude
-113.00181°
Altitude
25,338.371 km
Speed
3.28 km/s
True Right ascension
10h 49m 50s
True Declination
0° 00' 00"
Sunlit
Object was in daylight at epoch
Visualization orbit readout
Latitude
Unknown
Longitude
Unknown
Altitude
Unknown
Speed
Unknown
Apparent Right ascension
Unknown
Apparent Declination
Unknown
Sunlit
N/A
Visualization observer readout
Local Sidereal Time
12:32:56
Azimuth
Unknown
Elevation
Unknown
Doppler factor
Unknown
Orbital elements
Apogee altitude
34,757.211 km
Perigee altitude
7,938.535 km
Semi-major axis
27,726.01 km
Eccentricity
0.48364
Inclination
19.8634°
RAAN
162.482°
Arg. of periapsis
132.9859°
True anomaly
226.98186°
Mean anomaly
279.2247°
Eccentric anomaly
252.75938°
Mean motion
0.47012 °/min
Orbital period
765.76 mins
BSTAR
0
Loading maneuver chart data...
Computing Atmospheric mass density...

Documentation

Showing up to 5 results
|